This is the latest recevied weather packets stored in our database for station/object N0NAI-13. If no packets are shown the sender has not sent any weather packets the latest 10 day(s).
| Time | Temp. | Humidity | Pressure | Rain* | Wind** | Luminosity | Snow |
|---|---|---|---|---|---|---|---|
| 1777897533 | 13.89° C | 57% | 1000.9 hPa | 0 mm | - | - | - |
| 1777896918 | 13.33° C | 56% | 1000.9 hPa | 0 mm | - | - | - |
| 1777896321 | 13.33° C | 57% | 1001.1 hPa | 0 mm | - | - | - |
| 1777895724 | 12.78° C | 57% | 1001.2 hPa | 0 mm | - | - | - |
| 1777895127 | 12.22° C | 57% | 1001.2 hPa | 0 mm | - | - | - |
| 1777894529 | 12.22° C | 57% | 1001.2 hPa | 0 mm | - | - | - |
| 1777893926 | 12.22° C | 58% | 1001.2 hPa | 0 mm | - | - | - |
| 1777893330 | 11.67° C | 58% | 1001.2 hPa | 0 mm | - | - | - |
| 1777892732 | 11.67° C | 59% | 1001.4 hPa | 0 mm | - | - | - |
| 1777892117 | 11.11° C | 60% | 1001.6 hPa | 0 mm | - | - | - |
| 1777891520 | 10.56° C | 60% | 1001.7 hPa | 0 mm | - | - | - |
| 1777890922 | 10° C | 61% | 1001.8 hPa | 0 mm | - | - | - |
| 1777890325 | 10.56° C | 61% | 1001.9 hPa | 0 mm | - | - | - |
| 1777889727 | 10.56° C | 61% | 1001.9 hPa | 0 mm | - | - | - |
| 1777889125 | 10° C | 61% | 1002 hPa | 0 mm | - | - | - |
| 1777888515 | 9.44° C | 62% | 1002.3 hPa | 0 mm | - | - | - |
| 1777887918 | 9.44° C | 63% | 1002.3 hPa | 0 mm | - | - | - |
| 1777887315 | 9.44° C | 63% | 1002.4 hPa | 0 mm | - | - | - |
| 1777886724 | 9.44° C | 63% | 1002.7 hPa | 0 mm | - | - | - |
| 1777886127 | 10° C | 63% | 1002.7 hPa | 0 mm | - | - | - |
| 1777885530 | 10° C | 63% | 1002.9 hPa | 0 mm | - | - | - |
| 1777884915 | 10° C | 62% | 1003.1 hPa | 0 mm | - | - | - |
| 1777884318 | 9.44° C | 63% | 1003.3 hPa | 0 mm | - | - | - |
| 1777883721 | 9.44° C | 64% | 1003.4 hPa | 0 mm | - | - | - |
| 1777883124 | 9.44° C | 63% | 1003.4 hPa | 0 mm | - | - | - |
* Rain latest hour (hover to see other rain measurements)
** Current wind speed in m/s (hover to see current wind gust speed)